Погода Шауляй

Погода Шауляй : погода сейчас, прогноз погоды и архив. Всё, что Вы хотите узнать о погоде Шауляй!

Поиск расширенной информации на нашем сайте:

Полезная информация: Подробное описание очистка вентиляции от жировых отложений тут.

Другие новости

Новости СМИ2

Главная страница сайта

Новости сайта

02.10.2013

Напоминаем, что на нашем новом сайте вы можете получить высокодетализированные прогнозы погоды по пунктам России, СНГ и мира (включающие важные для авиации метеовеличины, такие как направление и скорость ветра, видимость, явления погоды, количество и форма облачности, нижняя и верхняя граница облачности), а также ознакомиться с разнообразными материалами по авиационной метеорологии и подборкой полезных ссылок на эту тему.

Сайт Метеоцентр.Азия посвящён разработке технологий оптимизации авиаметеорологического обслуживания, включая проектирование и перспективное создание нескольких автоматизированных авиаметеорологических систем:
- система выпуска высокодетальных прогностических карт явлений погоды для нижнего воздушного пространства по России и ближнему зарубежью;
- система верификации прогнозов TAF (выпускаемых синоптиками официальных АМСГ РФ и ближнего зарубежья) и AUTOTAF (выпускаемых сайтом Метеоцентр.Азия) - выявление ошибок, онлайн-сопоставление с фактической погодой METAR, автоматическое внесение коррективов в прогнозы при резком отклонении фактической погоды от прогноза, подсчёт оправдываемости прогнозов по элементам и в целом;
- система обработки, анализа и отображения авиаметеорологической информации для применения провайдерами метеорологической информации.

Рекомендуем: лимузины дешево москва

Погода Шауляй - сегодня

Время (UTC), дата Ветер
(°,м/с) 
Видим.   Явления Облачность Т
(°С)
Тd
(°С)
f(%) Тe
(°С)
Pmin
(гПа)
dP
(гПа)
Po
(мм)
O2
(г/м3)
Тmin Tmax R s Состояние
почвы
18 18.01.17 200 (Ю) 4-8{10}  7000 м  дымка  10/10 180 м 
[St]
-1.3 -2.5 92 -4  1033.8  -1.3  765  310    -0.7    16   
21 18.01.17 200 (Ю) 4-9{10}  4000 м  дымка  10/10 150 м 
[St]
-0.8 -1.7 94 -3  1032.6  -1.1  764  309           
00 19.01.17 210 (ЮЗ) 5-10{11}  10 км    10/10 210 м 
[St]
-0.4 -1.6 92 -3  1030.9  -1.7  763  308        16   
03 19.01.17 220 (ЮЗ) 5-10{12}  10 км  в посл. час переохл. осадки (гололёд){снег, морось} [диам. гололёда 1 мм]  10/10 210 м 
[St]
-0.6 -1.5 94 -4  1029.7  -1.2  762  308           
06 19.01.17 210 (ЮЗ) 5-10{12}  6000 м  дымка{снег, морось} [диам. гололёда 1 мм]  10/10 210 м 
[St]
-0.8 -1.7 94 -4  1028.2  -1.5  761  308  -1.4    0.0  16  неравномерный
мокрый или
старый снег
100% 
09 19.01.17 210 (ЮЗ) 4-8{12}  5000 м  слаб. переохл. морось (гололёд) [диам. гололёда 2 мм]  10/10 120 м 
[St]
-0.1 -0.7 96 -3  1027.9  -0.2  761  307           
12 19.01.17 220 (ЮЗ) 4-8{10}  5000 м  слаб. морось [диам. гололёда 0 мм]  10/10 150 м 
[St]
+0.4 -0.2 96 -2  1026.6  -1.3  760  306      0.0  16   
15 19.01.17 220 (ЮЗ) 4-8{09}  10 км  морось  10/10 120 м 
[St]
+0.5 -0.1 96 -2  1025.9  -0.7  759  305           
18 19.01.17 230 (ЮЗ) 4-7{10}  4200 м  слаб. морось  10/10 100 м 
[St]
+1.2 +0.7 96 -1  1024.9  -0.9  758  304    +1.3  0.0  14   
21 19.01.17 260 (З) 5-9{10}  7000 м  дымка{морось}  10/10 100 м 
[St]
+2.4 +1.9 97 1024.1  -0.7  758  302           
00 20.01.17 260 (З) 3-6{09}  2500 м  морось  10/10 100 м 
[St]
+2.3 +2.1 99 +1  1024.7  0.5  758  303      0.0  13   
03 20.01.17 260 (З) 2-4{07}  5000 м  дымка{морось}  10/10 60 м 
[St]
+2.2 +1.9 98 +2  1024.9  0.2  758  303           
06 20.01.17 280 (З) 3-6{06}  5000 м  дымка{морось}  10/10 60 м 
[St]
+2.2 +1.7 96 +1  1025.6  0.7  759  303  +1.2    0.3  11  неравномерный
мокрый или
старый снег
100% 
09 20.01.17 250 (З) 3-6{06}  2100 м  дымка  10/10 60 м 
[St]
+1.7 +1.4 98 1025.5  -0.1  759  304           
12 20.01.17 240 (ЮЗ) 3-6{09}  2700 м  дымка  10/10 60 м 
[St]
+2.6 +2.3 98 +1  1023.6  -1.8  758  302        10   
15 20.01.17 240 (ЮЗ) 3-7{08}  5000 м  дымка  10/10 100 м 
[St]
+2.9 +2.7 99 +2  1022.1  -1.5  756  301           
18 20.01.17 250 (З) 5-8{09}  12000 м    10/10 120 м 
[St]
+1.9 +1.6 98 -1  1021.2  -0.9  756  302    +3     
21 20.01.17 260 (З) 3-5{09}  2600 м  слаб. морось  10/10 60 м 
[St]
+2 +1.7 98 +1  1022.1  0.9  756  302           
00 21.01.17 270 (З) 3-5{08}  4000 м  дымка{морось}  10/10 60 м 
[St]
+2.4 +2.2 99 +1  1022.7  0.6  757  302      0.0   
03 21.01.17 270 (З) 3-6{06}  0600 м  туман  ?/?  
+1.6 +1.3 98 1023.4  0.6  757  303           
06 21.01.17 270 (З) 2-4{07}  1600 м  дымка{туман}  10/10 60 м 
[St]
+1.2 +1.2 100 +1  1024.4  758  304  +1    0.0  неравномерный
мокрый или
старый снег
100% 
09 21.01.17 280 (З) 3-5{07}  1400 м  в посл. час туман  10/10 60 м 
[St]
+1.1 +0.8 98 1026.6  2.2  760  305           
12 21.01.17 280 (З) 3-5{07}  20000 м  {туман}  3/0 средняя, верхняя 
[Ac trans|Ci fib]
+2.6 +1 89 +1  1027.4  0.8  760  303         
15 21.01.17 290 (З) 2-4{07}  15000 м    8/4 960 м верхняя 
[Sc|Ci sp]
+2.3 +0.1 85 +2  1028.5  1.1  761  304           
18 21.01.17 250 (З) 1-2{05}  5000 м  дымка  9/9 1050 м 
[Sc]
+2.1 +1.1 93 +3  1029.7  1.2  762  305    +3.2     
Время (UTC), дата Ветер
(°,м/с) 
Видим.   Явления Облачность Т
(°С)
Тd
(°С)
f(%) Тe
(°С)
Pmin
(гПа)
dP
(гПа)
Po
(мм)
O2
(г/м3)
Тmin Tmax R s Состояние
почвы

Для получения пояснительной информации подведите курсор к названию столбца.

ПОГОДА Шауляй - архив

Всё, что Вы хотите узнать о погоде Шауляй - удобно и подробно!

Выберите нужную дату (начиная с 1 января 2015* года) и нажмите кнопку "Найти".
Будут отображены архивные сводки погоды по пункту Шауляй, начиная с указанной даты.


Отображать данные в формате CSV (для использования в таблицах Excel)


Внимание! Наш архив погоды предназначен исключительно для личного некоммерческого использования в познавательных целях. Если Вам необходимы официальные справки о состоянии погоды (для производственных, юридических, коммерческих и т.п. целей), обращайтесь в органы Росгидромета.

*Примечание: данная дата относится к архиву по метеостанциям СССР (Россия, СНГ, Балтия).
Архив по метеостанциям Зарубежной Европы и Азии (кроме Китая) хранится 10 дней, по другим регионам земного шара (Китай, Африка, Америка, Австралия, Океания) - 1 день.

Шауляй - район местоположения метеостанции


Название, широта, долгота, высота метеостанции:
Шауляй 55.9°ш. 23.3°д. 107 м над ур. моря [Литва]

Дополнительная информация

В oтличие oт бoльшинства пoгoдных сайтoв мы публикуем пoдрoбную метеoинфoрмацию в детальнoм прoфессиoнальнoм фoрмате.

Характеристики температуры и влажнoсти вoздуха измеряются на высoте 2 м в тени вдали oт зданий и деревьев.
Скoрoсть ветра измеряется на высoте 10 м (на урoвне рoста челoвека скoрoсть ветра ниже в 1.5-2 раза). Если метеoстанция нахoдится в гoрoде или в лесу, тo скoрoсть ветра занижена на 2-4 м/с пo сравнению с oткрытым местoм. Скoрoсть ветра над акватoриями крупных рек и oзёр, а также на вершинах хoлмoв на 2-5 м/с выше, чем в oбычных услoвиях.
Атмoсфернoе давление в разных тoчках местнoсти мoжет значительнo oтличаться oт давления на метеoстанции, в зависимoсти oт услoвий рельефа (при пoдъёме на 10 м давление пoнижается примернo на 1 мм рт.ст.).